Ralf Busch

Ojeador - SC Freiburg
3 Dic 2028
Domingo
Continuar

Personalidad

Adaptabilidad (11) Ambición (4) Controversia (6) Lealtad (16) Presión (2) Profesionalismo (9) Deportividad (17) Temperamento (16)

Perfil

Estilo de dirección Democrático
Licencia Continental A
Determinación 11
Gestión de personas 9
Motivación 10
Disciplina 8
Satisfacción laboral
100%
Fatiga
0%
Cargo Ojeador
Salario 94.3K p/s
Contrato 14.03.2029

Rendimiento

Comportamiento Bueno
Efectividad del entrenamiento
45%
Desarrollo de jugadores
45%
Prevención de lesiones
50%
Implementación táctica
45%

Eventos recientes

Asistió a una reunión de captación ahora
Evaluó a un jugador ahora
Evaluó a un jugador ahora
Evaluó a un jugador ahora
Observó un partido ahora
Observó un partido ahora
Observó un partido ahora
Observó un partido ahora

Actualmente siguiendo

67
Jugador Club Estado Habilidad Confianza Observado Última observación Último voto
Álvaro Montoro Botafogo Activo 144 / 140 40% 12 02.12.2028 -
Franco Mastantuono Córdoba Activo 146 / 149 40% 2 02.12.2028 -
Jacob Peter Hödl Sturm Graz Activo 129 / 132 40% 5 01.12.2028 -
Ibrahim Mbaye Queens Park Rangers Activo 141 / 148 40% 3 01.12.2028 -
Geovany Quenda Watford Activo 157 / 157 40% 8 30.11.2028 -
Harry Gray Harrogate Town Activo 130 / 138 40% 3 30.11.2028 -
Ryan McAidoo Oldham Athletic Activo 130 / 137 40% 1 30.11.2028 -
Alex Verón Vélez Activo 110 / 118 40% 9 29.11.2028 -
Hugo Camberos Dorados Activo 129 / 139 40% 4 29.11.2028 -
Aarón Ochoa Málaga Activo 121 / 132 40% 2 29.11.2028 -
Matías Arias Vélez Activo 121 / 125 40% 5 27.11.2028 -
Babis Kostoulas Oxford United Activo 145 / 151 40% 5 23.11.2028 -
Rio Ngumoha Plymouth Argyle Activo 147 / 149 40% 7 23.11.2028 -
Celías Ingenthron Platense Activo 114 / 130 40% 3 22.11.2028 -
Luka Andrade Montevideo City Torque Activo 107 / 114 40% 4 22.11.2028 -
Luis Otávio Orlando City Activo 122 / 123 40% 5 20.11.2028 -
Santiago Segovia Rosario Central Activo 110 / 124 40% 5 16.11.2028 -
Mihajlo Cvetković Club Brugge Activo 136 / 134 40% 1 16.11.2028 -
Estêvão Portsmouth Activo 157 / 157 40% 3 13.11.2028 -
Julian Hall Real Salt Lake Activo 105 / 114 40% 5 08.11.2028 -
Vakhtang Salia Shonan Bellmare Activo 106 / 106 40% 6 08.11.2028 -
Yan Diomandé Oviedo Activo 162 / 166 40% 4 06.11.2028 -
Lucca São Paulo Activo 124 / 123 40% 3 06.11.2028 -
Johannes Moser Sturm Graz Activo 109 / 118 40% 2 05.11.2028 -
Mikey Moore Stockport County Activo 139 / 148 40% 5 30.10.2028 -
Sebastian Rodriguez Houston Dynamo Activo 120 / 125 40% 2 25.10.2028 -
Lisandro Piñero Banfield Activo 130 / 126 40% 5 23.10.2028 -
Martín Jiménez Iquique Activo 101 / 107 40% 2 23.10.2028 -
Tahiel Peralta Racing Club Activo 108 / 117 40% 4 22.10.2028 -
Ethan Nwaneri Arsenal Activo 155 / 159 40% 4 22.10.2028 -
Olivier Mambwa Young Boys Activo 114 / 124 40% 2 17.10.2028 -
Valentino Huertas Morón Activo 101 / 106 40% 2 15.10.2028 -
Matias Siltanen Malmo FF Activo 129 / 131 40% 2 11.10.2028 -
Peyton Miller New England Revolution Activo 121 / 125 40% 1 06.10.2028 -
Pablo Lago Juventud Activo 101 / 108 40% 1 11.09.2028 -
Nicolás Barros Schelotto Gimnasia La Plata Activo 126 / 123 40% 1 06.09.2028 -
Carl Klaus St. Pauli Informe listo 112 / 113 79% 1 28.08.2028 -
Mamoutou Berthé US Bougouba Perdido 105 / 112 40% 1 21.08.2028 -
Otto Stange Borussia Mönchengladbach Activo 133 / 137 40% 1 21.08.2028 -
Honest Ahanor Atalanta Activo 141 / 149 40% 4 14.08.2028 -
Jake Evans Crewe Alexandra Negociando 113 / 126 40% 3 01.08.2028 -
André Miranda Porto Activo 118 / 124 40% 1 01.08.2028 -
Héctor Fort Real Sociedad Activo 149 / 148 40% 7 03.07.2028 -
Andrey Ivlev Nizhniy Novgorod Activo 115 / 122 40% 1 03.07.2028 -
Giovanni Leoni Lincoln City Activo 142 / 147 40% 3 26.06.2028 -
Josh Nichols Oldham Athletic Activo 125 / 127 40% 6 26.06.2028 -
Joël Schmied Köln Informe listo 135 / 133 79% 1 26.06.2028 -
Ayden Heaven Portsmouth Activo 145 / 149 40% 3 19.06.2028 -
Igor Tyjon Barrow AFC Activo 115 / 124 40% 1 12.06.2028 -
Trey Nyoni Rotherham United Activo 139 / 148 40% 3 31.05.2028 -
Jorge Salinas Racing Santander Activo 134 / 139 40% 5 30.05.2028 -
Martim Cunha Porto Activo 105 / 113 40% 4 28.05.2028 -
Daniel Banjaqui Benfica Activo 125 / 129 40% 2 27.05.2028 -
Andrea Cogoni Cosenza Activo 108 / 118 40% 1 26.05.2028 -
Riquelme Thompson-Jones Accrington Stanley Activo 113 / 118 40% 4 24.05.2028 -
Marc Bernal Sevilla Activo 147 / 151 40% 3 20.05.2028 -
Kiani Inge Groningen Activo 110 / 117 40% 1 20.05.2028 -
Pau Cubarsí Real Sociedad Activo 164 / 163 40% 2 17.05.2028 -
Andrija Bulatović Chamois Niortais Activo 123 / 131 40% 2 10.05.2028 -
Givairo Read Feyenoord Activo 148 / 152 40% 3 08.05.2028 -
Jan Bürger Northampton Town Activo 124 / 124 40% 1 08.05.2028 -
Bernardo Lima Porto Activo 106 / 116 40% 1 05.05.2028 -
Illaijh de Ruijter ADO Den Haag Activo 121 / 128 40% 1 02.05.2028 -
Jorthy Mokio ADO Den Haag Activo 132 / 136 40% 2 01.05.2028 -
Christos Mouzakitis Hull City Activo 137 / 139 40% 1 10.04.2028 -
Tyler Fletcher Rotherham United Activo 109 / 115 40% 1 06.04.2028 -
Adam Hložek TSG Hoffenheim Activo 138 / 141 69% 1 01.06.2027 -